Location: Allie Creek
(37.5926°N, 89.8526°W)
Time: 13:12:26
(UTC+00:00)

CSL-04 Debris - Pass Details

Date: 26 September 2023
Orbit: 824 x 844 km, 98.8° (Epoch: 28 November)

Event Time Altitude Azimuth Distance (km) Brightness Sun altitude
Exits shadow 01:22:45 32° 117° (ESE) 1,403 4.8 -18.7°
Maximum altitude 01:24:41 44° 71° (ENE) 1,142 4.5 -19.1°
Drops below altitude 10° 01:29:49 10° 0° (N) 2,456 6.8 -20.0°
Sets 01:32:16 0° 354° (N) 3,391 7.6 -20.5°
